2016 Cux-Wetter.de -Die Nutzung der Wetterdaten nur mit ausdrcklicher Genehmigung
Wetterdaten: Woche 26.06.17 - 02.07.17 (KW26)
Datum Zeit Temp. A. Feuchte A. Luftdruck Regen Wind Richtung Sonnenschein Solar Taupunkt Windchill Windben
26.06.2017 00:00 15,7 C 78 % 1007,5 hPa 0,0 l/m 11,9 km/h (2 Bft) W 0,00 h 0 W/m 11,8 C 13,1 C 21,6 km/h (4 Bft)
26.06.2017 01:00 15,7 C 73 % 1007,4 hPa 0,0 l/m 11,8 km/h (2 Bft) SW 0,00 h 0 W/m 10,8 C 13,2 C 21,5 km/h (4 Bft)
26.06.2017 02:00 15,3 C 72 % 1007,1 hPa 0,0 l/m 11,0 km/h (2 Bft) W-NW 0,00 h 0 W/m 10,4 C 13,1 C 21,1 km/h (4 Bft)
26.06.2017 03:00 14,9 C 76 % 1007,3 hPa 0,0 l/m 10,8 km/h (2 Bft) W 0,00 h 0 W/m 10,8 C 12,7 C 19,9 km/h (4 Bft)
26.06.2017 04:00 14,7 C 76 % 1007,3 hPa 0,0 l/m 10,1 km/h (2 Bft) W 0,00 h 0 W/m 10,6 C 12,8 C 21,2 km/h (4 Bft)
26.06.2017 05:00 14,6 C 77 % 1007,4 hPa 0,0 l/m 8,9 km/h (2 Bft) W 0,00 h 10 W/m 10,6 C 13,2 C 18,3 km/h (3 Bft)
26.06.2017 06:00 14,7 C 77 % 1007,7 hPa 0,0 l/m 10,2 km/h (2 Bft) W 0,00 h 21 W/m 10,7 C 12,8 C 19,5 km/h (3 Bft)
26.06.2017 07:00 15,2 C 76 % 1008,1 hPa 0,0 l/m 11,0 km/h (2 Bft) W 0,00 h 43 W/m 11,0 C 13,0 C 21,8 km/h (4 Bft)
26.06.2017 08:00 16,1 C 73 % 1008,6 hPa 0,0 l/m 12,1 km/h (2 Bft) W-SW 0,40 h 227 W/m 11,2 C 13,5 C 24,5 km/h (4 Bft)
26.06.2017 09:00 16,7 C 71 % 1009,1 hPa 0,0 l/m 12,9 km/h (3 Bft) W-NW 0,50 h 378 W/m 11,4 C 14,0 C 24,9 km/h (4 Bft)
26.06.2017 10:00 16,7 C 72 % 1009,8 hPa 0,0 l/m 10,4 km/h (2 Bft) W 0,20 h 357 W/m 11,7 C 14,9 C 21,4 km/h (4 Bft)
26.06.2017 11:00 18,0 C 65 % 1010,3 hPa 0,0 l/m 12,2 km/h (2 Bft) W 0,95 h 783 W/m 11,2 C 15,7 C 23,7 km/h (4 Bft)
26.06.2017 12:00 18,0 C 65 % 1011,0 hPa 0,0 l/m 11,7 km/h (2 Bft) W 0,35 h 440 W/m 11,3 C 15,9 C 23,7 km/h (4 Bft)
26.06.2017 13:00 18,3 C 64 % 1011,3 hPa 0,0 l/m 12,8 km/h (3 Bft) W 0,70 h 760 W/m 11,3 C 15,9 C 24,1 km/h (4 Bft)
26.06.2017 14:00 18,3 C 62 % 1011,6 hPa 0,0 l/m 14,2 km/h (3 Bft) W 0,80 h 771 W/m 10,9 C 15,4 C 26,1 km/h (4 Bft)
26.06.2017 15:00 18,8 C 58 % 1012,0 hPa 0,0 l/m 13,3 km/h (3 Bft) W 1,00 h 832 W/m 10,4 C 16,2 C 25,4 km/h (4 Bft)
26.06.2017 16:00 18,4 C 61 % 1012,3 hPa 0,0 l/m 11,7 km/h (2 Bft) W 0,70 h 580 W/m 10,7 C 16,3 C 22,9 km/h (4 Bft)
26.06.2017 17:00 17,8 C 63 % 1012,5 hPa 0,0 l/m 10,6 km/h (2 Bft) W-NW 0,55 h 465 W/m 10,7 C 16,1 C 21,5 km/h (4 Bft)
26.06.2017 18:00 17,3 C 64 % 1012,5 hPa 0,0 l/m 10,1 km/h (2 Bft) W 0,55 h 272 W/m 10,5 C 15,7 C 20,1 km/h (4 Bft)
26.06.2017 19:00 16,6 C 64 % 1012,6 hPa 0,0 l/m 9,1 km/h (2 Bft) W-NW 0,00 h 58 W/m 9,8 C 15,3 C 18,8 km/h (3 Bft)
26.06.2017 20:00 15,7 C 68 % 1012,6 hPa 0,0 l/m 7,2 km/h (2 Bft) W 0,00 h 25 W/m 9,7 C 15,1 C 15,0 km/h (3 Bft)
26.06.2017 21:00 15,2 C 72 % 1012,3 hPa 0,0 l/m 7,5 km/h (2 Bft) W-NW 0,10 h 22 W/m 10,1 C 14,4 C 16,3 km/h (3 Bft)
26.06.2017 22:00 14,3 C 75 % 1012,2 hPa 0,0 l/m 5,4 km/h (1 Bft) W 0,00 h 0 W/m 10,0 C 14,2 C 12,4 km/h (2 Bft)
26.06.2017 23:00 14,0 C 80 % 1012,3 hPa 0,0 l/m 4,2 km/h (1 Bft) W 0,00 h 0 W/m 10,5 C 14,0 C 9,8 km/h (2 Bft)
27.06.2017 00:00 13,6 C 80 % 1012,9 hPa 0,0 l/m 3,6 km/h (1 Bft) W 0,00 h 0 W/m 10,3 C 13,6 C 8,4 km/h (2 Bft)
27.06.2017 01:00 13,5 C 76 % 1012,9 hPa 0,0 l/m 5,0 km/h (1 Bft) W 0,00 h 0 W/m 9,5 C 13,5 C 11,7 km/h (2 Bft)
27.06.2017 02:00 13,8 C 73 % 1012,7 hPa 0,0 l/m 4,6 km/h (1 Bft) W 0,00 h 0 W/m 9,0 C 13,8 C 11,9 km/h (2 Bft)
27.06.2017 03:00 13,5 C 73 % 1012,5 hPa 0,0 l/m 3,8 km/h (1 Bft) W-NW 0,00 h 0 W/m 8,8 C 13,5 C 8,8 km/h (2 Bft)
27.06.2017 04:00 13,4 C 76 % 1012,2 hPa 0,0 l/m 4,2 km/h (1 Bft) W-NW 0,00 h 0 W/m 9,2 C 13,4 C 10,4 km/h (2 Bft)
27.06.2017 05:00 13,8 C 78 % 1012,1 hPa 0,0 l/m 3,4 km/h (1 Bft) NW 0,00 h 13 W/m 10,0 C 13,8 C 7,6 km/h (2 Bft)
27.06.2017 06:00 13,9 C 78 % 1012,3 hPa 0,0 l/m 2,0 km/h (1 Bft) N-NW 0,00 h 35 W/m 10,2 C 13,9 C 5,2 km/h (1 Bft)
27.06.2017 07:00 14,5 C 74 % 1012,4 hPa 0,0 l/m 2,8 km/h (1 Bft) N-NW 0,00 h 108 W/m 9,9 C 14,5 C 6,3 km/h (2 Bft)
27.06.2017 08:00 14,9 C 74 % 1012,4 hPa 0,0 l/m 1,1 km/h (1 Bft) N-NW 0,00 h 158 W/m 10,2 C 14,9 C 3,8 km/h (1 Bft)
27.06.2017 09:00 15,3 C 74 % 1012,4 hPa 0,0 l/m 1,1 km/h (1 Bft) NO 0,15 h 209 W/m 10,7 C 15,3 C 3,8 km/h (1 Bft)
27.06.2017 10:00 15,7 C 71 % 1012,2 hPa 0,0 l/m 1,9 km/h (1 Bft) NO 0,20 h 326 W/m 10,5 C 15,7 C 5,3 km/h (1 Bft)
27.06.2017 11:00 16,8 C 68 % 1012,1 hPa 0,0 l/m 3,2 km/h (1 Bft) N 0,45 h 452 W/m 10,9 C 16,8 C 7,3 km/h (2 Bft)
27.06.2017 12:00 17,5 C 65 % 1011,8 hPa 0,0 l/m 3,5 km/h (1 Bft) N 0,30 h 465 W/m 10,9 C 17,5 C 8,1 km/h (2 Bft)
27.06.2017 13:00 19,2 C 60 % 1011,3 hPa 0,0 l/m 5,2 km/h (1 Bft) N 1,00 h 859 W/m 11,2 C 19,1 C 11,7 km/h (2 Bft)
27.06.2017 14:00 19,8 C 58 % 1010,8 hPa 0,0 l/m 5,6 km/h (2 Bft) N 1,00 h 778 W/m 11,3 C 19,7 C 12,8 km/h (3 Bft)
27.06.2017 15:00 20,1 C 58 % 1010,2 hPa 0,0 l/m 6,0 km/h (2 Bft) N-NW 0,95 h 662 W/m 11,4 C 19,9 C 14,4 km/h (3 Bft)
27.06.2017 16:00 20,2 C 58 % 1009,7 hPa 0,0 l/m 6,5 km/h (2 Bft) N 1,00 h 640 W/m 11,8 C 20,0 C 15,1 km/h (3 Bft)
27.06.2017 17:00 19,4 C 62 % 1008,9 hPa 0,0 l/m 6,1 km/h (2 Bft) N 0,25 h 276 W/m 12,0 C 19,2 C 14,3 km/h (3 Bft)
27.06.2017 18:00 19,2 C 66 % 1008,2 hPa 0,0 l/m 4,7 km/h (1 Bft) N-NW 0,40 h 224 W/m 12,6 C 19,2 C 11,8 km/h (2 Bft)
27.06.2017 19:00 18,6 C 63 % 1007,7 hPa 0,0 l/m 2,9 km/h (1 Bft) NO 0,00 h 84 W/m 11,3 C 18,6 C 7,6 km/h (2 Bft)
27.06.2017 20:00 18,1 C 67 % 1007,3 hPa 0,0 l/m 2,4 km/h (1 Bft) NO 0,00 h 31 W/m 11,8 C 18,1 C 6,5 km/h (2 Bft)
27.06.2017 21:00 17,7 C 71 % 1007,0 hPa 0,0 l/m 2,9 km/h (1 Bft) NO 0,00 h 9 W/m 12,4 C 17,7 C 8,4 km/h (2 Bft)
27.06.2017 22:00 17,0 C 76 % 1006,9 hPa 0,0 l/m 3,1 km/h (1 Bft) N-NO 0,00 h 0 W/m 12,7 C 17,0 C 7,6 km/h (2 Bft)
27.06.2017 23:00 16,6 C 79 % 1006,6 hPa 0,0 l/m 4,4 km/h (1 Bft) O 0,00 h 0 W/m 12,9 C 16,6 C 12,2 km/h (2 Bft)
28.06.2017 00:00 15,8 C 84 % 1006,1 hPa 0,4 l/m 5,4 km/h (2 Bft) O 0,00 h 0 W/m 13,1 C 15,7 C 14,2 km/h (3 Bft)
28.06.2017 01:00 14,5 C 89 % 1005,8 hPa 0,8 l/m 4,9 km/h (1 Bft) O 0,00 h 0 W/m 12,8 C 14,5 C 13,8 km/h (3 Bft)
28.06.2017 02:00 14,2 C 92 % 1004,9 hPa 0,4 l/m 5,2 km/h (1 Bft) NO 0,00 h 0 W/m 12,9 C 14,2 C 15,1 km/h (3 Bft)
28.06.2017 03:00 14,4 C 94 % 1004,3 hPa 0,4 l/m 4,7 km/h (1 Bft) O-SO 0,00 h 0 W/m 13,4 C 14,4 C 12,3 km/h (2 Bft)
28.06.2017 04:00 14,4 C 94 % 1003,6 hPa 0,4 l/m 4,5 km/h (1 Bft) NO 0,00 h 0 W/m 13,4 C 14,3 C 12,2 km/h (2 Bft)
28.06.2017 05:00 14,2 C 94 % 1002,6 hPa 1,0 l/m 4,9 km/h (1 Bft) O-NO 0,00 h 9 W/m 13,2 C 14,1 C 15,1 km/h (3 Bft)
28.06.2017 06:00 14,1 C 95 % 1002,0 hPa 0,6 l/m 5,6 km/h (2 Bft) O 0,00 h 14 W/m 13,3 C 14,0 C 14,4 km/h (3 Bft)
28.06.2017 07:00 14,4 C 95 % 1001,3 hPa 0,0 l/m 7,0 km/h (2 Bft) SO 0,00 h 39 W/m 13,6 C 13,8 C 18,3 km/h (3 Bft)
28.06.2017 08:00 14,9 C 94 % 1000,6 hPa 0,0 l/m 7,1 km/h (2 Bft) O 0,00 h 94 W/m 13,9 C 14,4 C 18,0 km/h (3 Bft)
28.06.2017 09:00 16,3 C 91 % 1000,0 hPa 0,0 l/m 7,4 km/h (2 Bft) N-NO 0,15 h 263 W/m 14,7 C 15,7 C 18,9 km/h (3 Bft)
28.06.2017 10:00 18,4 C 83 % 999,5 hPa 0,0 l/m 8,3 km/h (2 Bft) O-NO 0,50 h 418 W/m 15,5 C 17,6 C 20,1 km/h (4 Bft)
28.06.2017 11:00 19,6 C 81 % 999,0 hPa 0,0 l/m 7,7 km/h (2 Bft) O 0,20 h 378 W/m 16,1 C 19,0 C 19,6 km/h (3 Bft)
28.06.2017 12:00 20,0 C 78 % 998,5 hPa 0,2 l/m 6,7 km/h (2 Bft) NO 0,00 h 193 W/m 16,1 C 19,8 C 17,7 km/h (3 Bft)
28.06.2017 13:00 21,2 C 74 % 997,8 hPa 0,0 l/m 6,6 km/h (2 Bft) O 0,20 h 331 W/m 16,3 C 21,0 C 16,6 km/h (3 Bft)
28.06.2017 14:00 22,0 C 72 % 997,2 hPa 0,0 l/m 5,9 km/h (2 Bft) O 0,10 h 346 W/m 16,6 C 21,9 C 16,0 km/h (3 Bft)
28.06.2017 15:00 22,2 C 71 % 996,4 hPa 0,0 l/m 6,7 km/h (2 Bft) NO 0,30 h 270 W/m 16,6 C 22,0 C 17,6 km/h (3 Bft)
28.06.2017 16:00 21,5 C 74 % 995,8 hPa 0,0 l/m 6,6 km/h (2 Bft) N 0,00 h 156 W/m 16,7 C 21,4 C 16,7 km/h (3 Bft)
28.06.2017 17:00 20,7 C 81 % 995,1 hPa 0,2 l/m 4,8 km/h (1 Bft) O-SO 0,00 h 80 W/m 17,2 C 20,7 C 13,5 km/h (3 Bft)
28.06.2017 18:00 19,4 C 88 % 994,4 hPa 0,4 l/m 4,4 km/h (1 Bft) O-NO 0,00 h 58 W/m 17,4 C 19,4 C 12,3 km/h (2 Bft)
28.06.2017 19:00 18,9 C 90 % 993,7 hPa 0,6 l/m 5,1 km/h (1 Bft) NO 0,00 h 23 W/m 17,2 C 18,9 C 14,4 km/h (3 Bft)
28.06.2017 20:00 18,4 C 93 % 993,8 hPa 0,8 l/m 5,5 km/h (2 Bft) S-SO 0,00 h 8 W/m 17,2 C 18,2 C 14,1 km/h (3 Bft)
28.06.2017 21:00 18,4 C 95 % 993,7 hPa 0,0 l/m 2,2 km/h (1 Bft) O-SO 0,00 h 9 W/m 17,6 C 18,4 C 5,9 km/h (2 Bft)
28.06.2017 22:00 18,4 C 96 % 994,0 hPa 0,0 l/m 2,3 km/h (1 Bft) O 0,00 h 0 W/m 17,7 C 18,4 C 5,7 km/h (2 Bft)
28.06.2017 23:00 18,4 C 96 % 993,6 hPa 0,0 l/m 3,4 km/h (1 Bft) O 0,00 h 0 W/m 17,7 C 18,4 C 9,1 km/h (2 Bft)
29.06.2017 00:00 18,3 C 96 % 993,2 hPa 0,0 l/m 3,8 km/h (1 Bft) SO 0,00 h 0 W/m 17,6 C 18,2 C 9,1 km/h (2 Bft)
29.06.2017 01:00 18,2 C 96 % 993,1 hPa 0,0 l/m 6,4 km/h (2 Bft) S 0,00 h 0 W/m 17,5 C 17,8 C 12,7 km/h (3 Bft)
29.06.2017 02:00 17,8 C 96 % 993,2 hPa 0,0 l/m 9,0 km/h (2 Bft) SW 0,00 h 0 W/m 17,2 C 16,6 C 15,8 km/h (3 Bft)
29.06.2017 03:00 17,5 C 96 % 993,5 hPa 0,0 l/m 6,2 km/h (2 Bft) SW 0,00 h 0 W/m 16,8 C 17,2 C 10,7 km/h (2 Bft)
29.06.2017 04:00 17,3 C 96 % 993,7 hPa 0,0 l/m 4,7 km/h (1 Bft) SW 0,00 h 0 W/m 16,6 C 17,3 C 8,0 km/h (2 Bft)
29.06.2017 05:00 17,0 C 96 % 993,7 hPa 0,0 l/m 1,1 km/h (0 Bft) S-SW 0,00 h 9 W/m 16,4 C 17,0 C 2,2 km/h (1 Bft)
29.06.2017 06:00 17,0 C 96 % 993,7 hPa 0,0 l/m 0,0 km/h (0 Bft) S-SW 0,00 h 28 W/m 16,3 C 17,0 C 0,2 km/h (0 Bft)
29.06.2017 07:00 17,4 C 96 % 993,8 hPa 0,0 l/m 4,1 km/h (1 Bft) SW 0,00 h 102 W/m 16,7 C 17,4 C 7,6 km/h (2 Bft)
29.06.2017 08:00 18,0 C 94 % 994,0 hPa 0,0 l/m 2,4 km/h (1 Bft) W-SW 0,05 h 162 W/m 17,0 C 18,0 C 5,2 km/h (1 Bft)
29.06.2017 09:00 19,2 C 90 % 994,2 hPa 0,0 l/m 1,8 km/h (1 Bft) N-NO 0,95 h 383 W/m 17,5 C 19,2 C 4,4 km/h (1 Bft)
29.06.2017 10:00 20,2 C 83 % 994,3 hPa 0,0 l/m 2,0 km/h (1 Bft) N-NW 1,00 h 499 W/m 17,2 C 20,2 C 4,5 km/h (1 Bft)
29.06.2017 11:00 21,4 C 80 % 994,7 hPa 0,0 l/m 4,9 km/h (1 Bft) N-NW 0,75 h 551 W/m 17,7 C 21,4 C 10,4 km/h (2 Bft)
29.06.2017 12:00 22,0 C 78 % 994,9 hPa 0,0 l/m 6,1 km/h (2 Bft) N-NW 1,00 h 588 W/m 18,0 C 21,9 C 13,2 km/h (3 Bft)
29.06.2017 13:00 21,9 C 79 % 995,1 hPa 0,0 l/m 5,8 km/h (2 Bft) NW 0,45 h 500 W/m 18,0 C 21,9 C 12,8 km/h (3 Bft)
29.06.2017 14:00 21,6 C 79 % 995,1 hPa 0,0 l/m 6,5 km/h (2 Bft) N 0,60 h 499 W/m 17,8 C 21,3 C 13,8 km/h (3 Bft)
29.06.2017 15:00 21,3 C 80 % 995,3 hPa 0,0 l/m 7,5 km/h (2 Bft) N-NW 0,25 h 405 W/m 17,7 C 20,8 C 15,5 km/h (3 Bft)
29.06.2017 16:00 21,7 C 79 % 995,4 hPa 0,0 l/m 8,1 km/h (2 Bft) N-NW 0,70 h 498 W/m 17,8 C 21,1 C 17,3 km/h (3 Bft)
29.06.2017 17:00 20,6 C 81 % 995,6 hPa 0,0 l/m 9,7 km/h (2 Bft) N-NW 0,00 h 207 W/m 17,1 C 19,4 C 18,9 km/h (3 Bft)
29.06.2017 18:00 19,6 C 83 % 995,8 hPa 0,0 l/m 11,5 km/h (2 Bft) N 0,00 h 106 W/m 16,6 C 17,7 C 21,0 km/h (4 Bft)
29.06.2017 19:00 18,9 C 83 % 996,1 hPa 0,0 l/m 11,4 km/h (2 Bft) N-NW 0,00 h 49 W/m 16,0 C 17,0 C 21,2 km/h (4 Bft)
29.06.2017 20:00 18,8 C 83 % 996,3 hPa 0,0 l/m 10,1 km/h (2 Bft) NW 0,00 h 25 W/m 15,8 C 17,3 C 19,3 km/h (3 Bft)
29.06.2017 21:00 18,5 C 85 % 996,6 hPa 0,0 l/m 10,0 km/h (2 Bft) NW 0,00 h 10 W/m 16,0 C 17,0 C 18,8 km/h (3 Bft)
29.06.2017 22:00 18,1 C 88 % 997,0 hPa 0,0 l/m 9,8 km/h (2 Bft) NW 0,00 h 0 W/m 16,0 C 16,7 C 17,9 km/h (3 Bft)
29.06.2017 23:00 17,8 C 90 % 997,1 hPa 0,4 l/m 6,6 km/h (2 Bft) NW 0,00 h 0 W/m 16,1 C 17,5 C 14,9 km/h (3 Bft)
30.06.2017 00:00 17,3 C 92 % 997,1 hPa 1,2 l/m 7,4 km/h (2 Bft) W 0,00 h 0 W/m 15,9 C 16,6 C 15,3 km/h (3 Bft)
30.06.2017 01:00 16,5 C 93 % 997,0 hPa 0,8 l/m 11,5 km/h (2 Bft) W 0,00 h 0 W/m 15,4 C 14,3 C 21,0 km/h (4 Bft)
30.06.2017 02:00 15,7 C 94 % 997,3 hPa 0,0 l/m 12,0 km/h (2 Bft) W 0,00 h 0 W/m 14,7 C 13,1 C 22,8 km/h (4 Bft)
30.06.2017 03:00 15,3 C 94 % 997,1 hPa 0,0 l/m 12,9 km/h (3 Bft) W 0,00 h 0 W/m 14,4 C 12,3 C 24,3 km/h (4 Bft)
30.06.2017 04:00 15,4 C 95 % 997,1 hPa 0,0 l/m 13,7 km/h (3 Bft) W 0,00 h 0 W/m 14,6 C 12,2 C 24,9 km/h (4 Bft)
30.06.2017 05:00 15,4 C 94 % 997,4 hPa 0,6 l/m 13,0 km/h (3 Bft) W 0,00 h 5 W/m 14,4 C 12,4 C 24,0 km/h (4 Bft)
30.06.2017 06:00 15,3 C 95 % 997,2 hPa 1,0 l/m 13,3 km/h (3 Bft) W-NW 0,00 h 11 W/m 14,5 C 12,2 C 24,9 km/h (4 Bft)
30.06.2017 07:00 15,2 C 95 % 997,0 hPa 0,4 l/m 12,8 km/h (3 Bft) W 0,00 h 25 W/m 14,4 C 12,3 C 24,0 km/h (4 Bft)
30.06.2017 08:00 15,2 C 95 % 997,6 hPa 0,8 l/m 11,2 km/h (2 Bft) W 0,00 h 24 W/m 14,4 C 12,8 C 20,8 km/h (4 Bft)
30.06.2017 09:00 15,2 C 96 % 997,7 hPa 1,4 l/m 12,7 km/h (3 Bft) W 0,00 h 60 W/m 14,5 C 12,2 C 23,6 km/h (4 Bft)
30.06.2017 10:00 14,9 C 96 % 997,9 hPa 0,8 l/m 12,8 km/h (3 Bft) W-SW 0,00 h 61 W/m 14,3 C 11,9 C 24,9 km/h (4 Bft)
30.06.2017 11:00 15,0 C 96 % 998,4 hPa 1,0 l/m 14,1 km/h (3 Bft) W 0,00 h 114 W/m 14,3 C 11,5 C 26,9 km/h (4 Bft)
30.06.2017 12:00 14,9 C 96 % 998,8 hPa 0,8 l/m 15,1 km/h (3 Bft) W 0,00 h 113 W/m 14,3 C 11,1 C 28,0 km/h (5 Bft)
30.06.2017 13:00 14,9 C 96 % 999,0 hPa 0,8 l/m 15,3 km/h (3 Bft) W 0,00 h 78 W/m 14,3 C 11,0 C 28,1 km/h (5 Bft)
30.06.2017 14:00 14,9 C 96 % 999,2 hPa 1,6 l/m 16,8 km/h (3 Bft) W 0,00 h 81 W/m 14,3 C 10,6 C 30,3 km/h (5 Bft)
30.06.2017 15:00 14,8 C 96 % 999,5 hPa 1,8 l/m 17,4 km/h (3 Bft) W 0,00 h 56 W/m 14,2 C 10,2 C 32,0 km/h (5 Bft)
30.06.2017 16:00 14,6 C 96 % 999,8 hPa 1,8 l/m 19,0 km/h (3 Bft) W 0,00 h 54 W/m 14,0 C 9,5 C 35,0 km/h (5 Bft)
30.06.2017 17:00 14,7 C 96 % 999,9 hPa 1,6 l/m 16,9 km/h (3 Bft) W 0,00 h 45 W/m 14,1 C 10,3 C 29,9 km/h (5 Bft)
30.06.2017 18:00 14,5 C 97 % 1000,0 hPa 1,8 l/m 16,3 km/h (3 Bft) W 0,00 h 23 W/m 13,9 C 10,1 C 30,3 km/h (5 Bft)
30.06.2017 19:00 14,2 C 97 % 999,8 hPa 1,6 l/m 16,8 km/h (3 Bft) W 0,00 h 23 W/m 13,7 C 9,7 C 30,9 km/h (5 Bft)
30.06.2017 20:00 14,4 C 97 % 999,9 hPa 1,4 l/m 15,5 km/h (3 Bft) W-SW 0,00 h 11 W/m 13,8 C 10,3 C 29,1 km/h (5 Bft)
30.06.2017 21:00 14,5 C 97 % 1000,1 hPa 1,6 l/m 14,9 km/h (3 Bft) W-SW 0,00 h 5 W/m 13,9 C 10,6 C 27,0 km/h (5 Bft)
30.06.2017 22:00 14,4 C 97 % 1000,2 hPa 3,6 l/m 15,9 km/h (3 Bft) W-SW 0,00 h 0 W/m 13,9 C 10,2 C 26,4 km/h (4 Bft)
30.06.2017 23:00 14,3 C 97 % 1000,1 hPa 2,0 l/m 7,1 km/h (2 Bft) SW 0,00 h 0 W/m 13,8 C 13,6 C 14,0 km/h (3 Bft)
01.07.2017 00:00 14,4 C 97 % 1000,0 hPa 0,4 l/m 6,4 km/h (2 Bft) SW 0,00 h 0 W/m 13,9 C 14,1 C 12,3 km/h (2 Bft)
01.07.2017 01:00 14,4 C 97 % 1000,0 hPa 0,0 l/m 5,9 km/h (2 Bft) SW 0,00 h 0 W/m 13,9 C 14,3 C 11,2 km/h (2 Bft)
01.07.2017 02:00 14,4 C 97 % 1000,0 hPa 0,0 l/m 3,6 km/h (1 Bft) SW 0,00 h 0 W/m 13,9 C 14,4 C 8,2 km/h (2 Bft)
01.07.2017 03:00 14,6 C 97 % 1000,1 hPa 0,0 l/m 3,9 km/h (1 Bft) W 0,00 h 0 W/m 14,1 C 14,6 C 9,4 km/h (2 Bft)
01.07.2017 04:00 14,7 C 97 % 1000,1 hPa 0,0 l/m 5,3 km/h (1 Bft) W 0,00 h 0 W/m 14,3 C 14,7 C 11,2 km/h (2 Bft)
01.07.2017 05:00 14,8 C 97 % 1000,2 hPa 0,2 l/m 6,0 km/h (2 Bft) W 0,00 h 9 W/m 14,3 C 14,7 C 12,4 km/h (2 Bft)
01.07.2017 06:00 15,1 C 97 % 1000,5 hPa 0,2 l/m 3,5 km/h (1 Bft) W-SW 0,00 h 21 W/m 14,6 C 15,1 C 8,1 km/h (2 Bft)
01.07.2017 07:00 15,7 C 98 % 1001,0 hPa 0,2 l/m 2,5 km/h (1 Bft) N 0,00 h 76 W/m 15,3 C 15,7 C 7,1 km/h (2 Bft)
01.07.2017 08:00 15,9 C 97 % 1001,8 hPa 0,0 l/m 4,1 km/h (1 Bft) N 0,00 h 90 W/m 15,4 C 15,8 C 10,0 km/h (2 Bft)
01.07.2017 09:00 15,6 C 97 % 1002,4 hPa 0,0 l/m 5,7 km/h (2 Bft) N-NW 0,00 h 61 W/m 15,2 C 15,5 C 14,1 km/h (3 Bft)
01.07.2017 10:00 15,5 C 97 % 1003,2 hPa 0,0 l/m 6,7 km/h (2 Bft) N-NW 0,00 h 52 W/m 15,0 C 15,1 C 14,4 km/h (3 Bft)
01.07.2017 11:00 15,7 C 97 % 1004,0 hPa 0,0 l/m 7,9 km/h (2 Bft) N-NW 0,00 h 114 W/m 15,1 C 14,8 C 17,5 km/h (3 Bft)
01.07.2017 12:00 16,5 C 95 % 1004,6 hPa 0,0 l/m 8,0 km/h (2 Bft) N-NW 0,00 h 266 W/m 15,6 C 15,7 C 18,3 km/h (3 Bft)
01.07.2017 13:00 18,5 C 88 % 1005,3 hPa 0,0 l/m 10,4 km/h (2 Bft) N-NW 0,70 h 665 W/m 16,4 C 16,8 C 21,3 km/h (4 Bft)
01.07.2017 14:00 20,6 C 79 % 1005,7 hPa 0,0 l/m 11,5 km/h (2 Bft) NW 1,00 h 821 W/m 16,9 C 18,9 C 21,0 km/h (4 Bft)
01.07.2017 15:00 20,7 C 79 % 1006,3 hPa 0,0 l/m 13,1 km/h (3 Bft) NW 0,85 h 682 W/m 17,0 C 18,6 C 24,5 km/h (4 Bft)
01.07.2017 16:00 20,1 C 81 % 1006,7 hPa 0,0 l/m 13,1 km/h (3 Bft) NW 0,75 h 489 W/m 16,7 C 17,9 C 23,6 km/h (4 Bft)
01.07.2017 17:00 20,1 C 79 % 1007,2 hPa 0,0 l/m 12,9 km/h (3 Bft) N-NW 0,90 h 536 W/m 16,4 C 17,9 C 24,2 km/h (4 Bft)
01.07.2017 18:00 19,1 C 82 % 1007,6 hPa 0,0 l/m 14,0 km/h (3 Bft) NW 0,75 h 308 W/m 15,9 C 16,5 C 26,5 km/h (4 Bft)
01.07.2017 19:00 17,8 C 86 % 1008,0 hPa 0,0 l/m 14,2 km/h (3 Bft) NW 0,00 h 40 W/m 15,4 C 14,8 C 25,5 km/h (4 Bft)
01.07.2017 20:00 16,8 C 88 % 1008,6 hPa 0,0 l/m 13,6 km/h (3 Bft) W-NW 0,00 h 30 W/m 14,9 C 13,9 C 25,1 km/h (4 Bft)
01.07.2017 21:00 16,2 C 89 % 1009,3 hPa 0,0 l/m 12,0 km/h (2 Bft) NW 0,00 h 14 W/m 14,4 C 13,7 C 22,8 km/h (4 Bft)
01.07.2017 22:00 15,7 C 89 % 1010,1 hPa 0,0 l/m 10,4 km/h (2 Bft) W 0,00 h 0 W/m 13,9 C 13,8 C 21,8 km/h (4 Bft)
01.07.2017 23:00 15,6 C 89 % 1010,8 hPa 0,0 l/m 8,9 km/h (2 Bft) NW 0,00 h 0 W/m 13,7 C 14,2 C 20,2 km/h (4 Bft)
02.07.2017 00:00 15,3 C 88 % 1011,2 hPa 0,0 l/m 9,2 km/h (2 Bft) W-NW 0,00 h 0 W/m 13,3 C 13,8 C 20,1 km/h (4 Bft)
02.07.2017 01:00 14,9 C 87 % 1011,4 hPa 0,0 l/m 7,5 km/h (2 Bft) W 0,00 h 0 W/m 12,8 C 14,2 C 16,2 km/h (3 Bft)
02.07.2017 02:00 14,6 C 90 % 1011,4 hPa 0,0 l/m 8,6 km/h (2 Bft) W 0,00 h 0 W/m 12,9 C 13,4 C 16,2 km/h (3 Bft)
02.07.2017 03:00 14,6 C 91 % 1011,3 hPa 0,0 l/m 9,7 km/h (2 Bft) W 0,00 h 0 W/m 13,1 C 12,8 C 17,9 km/h (3 Bft)
02.07.2017 04:00 14,7 C 91 % 1011,0 hPa 0,0 l/m 8,9 km/h (2 Bft) W-SW 0,00 h 0 W/m 13,2 C 13,4 C 16,7 km/h (3 Bft)
02.07.2017 05:00 15,2 C 91 % 1011,0 hPa 0,0 l/m 9,0 km/h (2 Bft) W-SW 0,05 h 23 W/m 13,7 C 13,8 C 17,5 km/h (3 Bft)
02.07.2017 06:00 15,4 C 93 % 1011,1 hPa 0,0 l/m 11,4 km/h (2 Bft) SW 0,00 h 35 W/m 14,2 C 13,1 C 19,5 km/h (3 Bft)
02.07.2017 07:00 15,4 C 93 % 1011,0 hPa 0,0 l/m 12,9 km/h (3 Bft) SW 0,00 h 31 W/m 14,4 C 12,5 C 21,9 km/h (4 Bft)
02.07.2017 08:00 15,4 C 94 % 1011,3 hPa 0,4 l/m 12,9 km/h (3 Bft) W 0,00 h 40 W/m 14,5 C 12,5 C 23,6 km/h (4 Bft)
02.07.2017 09:00 15,2 C 94 % 1011,8 hPa 0,0 l/m 12,1 km/h (2 Bft) W 0,00 h 81 W/m 14,2 C 12,5 C 22,4 km/h (4 Bft)
02.07.2017 10:00 15,8 C 91 % 1012,2 hPa 0,0 l/m 11,5 km/h (2 Bft) W 0,00 h 124 W/m 14,4 C 13,5 C 21,6 km/h (4 Bft)
02.07.2017 11:00 16,7 C 88 % 1012,7 hPa 0,0 l/m 12,1 km/h (2 Bft) W 0,30 h 325 W/m 14,7 C 14,2 C 22,1 km/h (4 Bft)
02.07.2017 12:00 18,4 C 77 % 1013,2 hPa 0,0 l/m 13,8 km/h (3 Bft) W 0,70 h 512 W/m 14,3 C 15,6 C 26,6 km/h (4 Bft)
02.07.2017 13:00 18,5 C 76 % 1013,6 hPa 0,0 l/m 12,6 km/h (3 Bft) W 0,35 h 437 W/m 14,1 C 16,2 C 24,2 km/h (4 Bft)
02.07.2017 14:00 18,4 C 75 % 1014,3 hPa 0,0 l/m 12,4 km/h (2 Bft) NW 0,15 h 307 W/m 13,9 C 16,0 C 23,6 km/h (4 Bft)
02.07.2017 15:00 18,3 C 72 % 1015,1 hPa 0,0 l/m 13,6 km/h (3 Bft) W-NW 0,60 h 422 W/m 13,2 C 15,6 C 25,5 km/h (4 Bft)
02.07.2017 16:00 18,6 C 68 % 1015,6 hPa 0,0 l/m 13,6 km/h (3 Bft) N-NW 0,90 h 679 W/m 12,6 C 16,0 C 24,8 km/h (4 Bft)
02.07.2017 17:00 18,6 C 67 % 1015,9 hPa 0,0 l/m 12,2 km/h (2 Bft) W-NW 0,75 h 507 W/m 12,4 C 16,4 C 23,6 km/h (4 Bft)
02.07.2017 18:00 17,6 C 69 % 1016,3 hPa 0,0 l/m 13,5 km/h (3 Bft) NW 0,20 h 221 W/m 11,8 C 14,9 C 28,4 km/h (5 Bft)
02.07.2017 19:00 17,0 C 68 % 1016,7 hPa 0,0 l/m 11,4 km/h (2 Bft) W 0,00 h 48 W/m 11,1 C 14,8 C 23,2 km/h (4 Bft)
02.07.2017 20:00 16,2 C 70 % 1016,9 hPa 0,0 l/m 11,9 km/h (2 Bft) W-NW 0,00 h 26 W/m 10,8 C 13,7 C 24,2 km/h (4 Bft)
02.07.2017 21:00 15,9 C 72 % 1017,2 hPa 0,0 l/m 15,5 km/h (3 Bft) W 0,00 h 11 W/m 10,8 C 12,2 C 29,4 km/h (5 Bft)
02.07.2017 22:00 15,6 C 75 % 1017,5 hPa 0,0 l/m 13,1 km/h (3 Bft) W-NW 0,00 h 0 W/m 11,1 C 12,6 C 25,3 km/h (4 Bft)
02.07.2017 23:00 15,3 C 77 % 1017,6 hPa 0,0 l/m 13,8 km/h (3 Bft) W 0,00 h 0 W/m 11,2 C 12,0 C 25,7 km/h (4 Bft)
Min-Datum _ 27.06.17 26.06.17 29.06.17 - 27.06.17 - - - 27.06.17 30.06.17 27.06.17
_ Min-Zeit 04:51 15:33 00:30 - 07:51 - - - 03:00 16:15 07:51
Minimum _ 13,3 C 56 % 993,0 hPa - 0,0 km/h (0 Bft) - - - 8,5 C 8,5 C 0,0 km/h (0 Bft)
Max-Datum _ 28.06.17 01.07.17 02.07.17 30.06.17 30.06.17 - 26.06.17 02.07.17 29.06.17 28.06.17 30.06.17
_ Max-Zeit 15:12 06:54 22:36 22:48 16:15 - 08:27 13:48 13:27 15:09 16:24
Maximum _ 22,8 C 98 % 1017,6 hPa 3,6 l/m 23,0 km/h
W (4 Bft)
- 0,05 h 1114 W/m 18,4 C 22,7 C 43,5 km/h
W (6 Bft)
Durchschnitt _ 16,8 C 83 % 1004,4 hPa #36,4 l/m 8,6 km/h (2 Bft) W #28:39 h 232 W/m 13,8 C 15,5 C 17,5 km/h (3 Bft)
2017 Cux-Wetter.de -Die Nutzung der Wetterdaten nur mit ausdrcklicher Genehmigung